Location: Austin
(30.3000°N, 97.7500°W)
Time: 03:37:38
(UTC-05:00)

MOS 1-B - Pass Details

Date: 18 March 2023
Orbit: 904 x 913 km, 99.4° (Epoch: 01 April)

Event Time Altitude Azimuth Distance (km) Brightness Sun altitude
Rises 20:22:55 0° 155° (SSE) 3,531 7.1 -9.8°
Reaches altitude 10° 20:25:21 10° 152° (SSE) 2,592 6.4 -10.4°
Maximum altitude 20:31:01 60° 73° (ENE) 1,033 4.4 -11.6°
Drops below altitude 10° 20:36:43 10° 355° (N) 2,600 6.9 -12.8°
Sets 20:39:09 0° 352° (N) 3,543 7.6 -13.3°
